sat.trackr.live / text

‹ back to catalog

STARLINK-36090

NORAD 66855 · 2025-281H

PAYLOAD ACTIVE UNKNOWN

§ Identity

Operator
Country
US
Launch date
2025-12-02
Launch site
AFETR
Launch vehicle
Mass (kg)
RCS (m²)

Purposes: comms

External: N2YO · Heavens-Above · Gunter

§ Orbital elements

Epoch: 2026-05-24T16:38:12.961248Z

Period
94.27 min
Inclination
43.0010°
Eccentricity
0.0001451
Mean motion
15.27590557 rev/d
Perigee alt
482.0 km
Apogee alt
484.0 km
Semi-major
6,861.2 km
B*
4.2755e-4
RAAN
273.8654°
Arg perigee
262.2378°
Mean anomaly
97.8309°
Rev number
2,781

§ Raw data

STARLINK-360901 66855U 25281H   26144.69320557  .00011525  00000+0  42755-3 0  99912 66855  43.0010 273.8654 0001451 262.2378  97.8309 15.27590557 27816

JSON: /api/v1/satellites/66855 · /tle

For live sub-satellite position, see the globe view (requires WebGL).

§ Visibility from observer

Set your observer location to see the next 7 days of passes ≥ 10°. The values pass through the URL so the page stays shareable.

No JS? Fill the form by hand. The geolocation button needs JavaScript.